Regional Weather Roundup
Issued by NWS

Home | Current Version | Previous Version | Text Only | Print | Product List | Glossary On
Versions: 1 2 3 4 5 6 7 8 9 10 11 12 13 14 15 16 17 18 19 20 21 22 23 24 25 26 27 28 29 30 31 32 33 34 35 36 37 38 39 40 41 42 43 44 45 46 47 48 49 50
000
ASUS45 KABQ 270010
RWRNM
WEATHER ROUNDUP FOR NEW MEXICO
NATIONAL WEATHER SERVICE ALBUQUERQUE NM
500 PM MST WED NOV 26 2014

NOTE: "FAIR" MEANS FEW OR NO CLOUDS BELOW 12,000 FEET AGL WITH NO
       SIGNIFICANT WEATHER OR OBSTRUCTIONS TO VISION.

      THIS PRODUCT IS RELEASED AS TWO VERSIONS.  ONE VERSION NEAR
      THE TOP OF THE HOUR CONTAINING PRELIMINARY DATA FROM ALBUQUERQUE
      AND OTHER STATIONS.  A FINAL VERSION WITH ADDITIONAL DATA IS
      ISSUED ABOUT 10 MINUTES AFTER THE HOUR.

NMZ501-503-504-510>518-270100-
NORTHWEST PLATEAU/NORTHCENTRAL MOUNTAINS

CITY           SKY/WX    TMP DP  RH WIND       PRES   REMARKS
FARMINGTON     CLEAR     51  21  30 W12       30.34R
6HR MIN TEMP:  46; 6HR MAX TEMP:  56;

LOS ALAMOS     CLEAR     46  23  39 E3        30.38R
SANTA FE       CLEAR     49  18  29 N5        30.33S
6HR MIN TEMP:  46; 6HR MAX TEMP:  54;

TAOS           CLEAR     43  23  45 SE6       30.36S
ANGEL FIRE     FAIR      38  23  53 W14       30.38R WCI  30

$$
NMZ402-403-502-505>509-270100-
WESTCENTRAL MOUNTAINS/SOUTHWEST MOUNTAINS

CITY           SKY/WX    TMP DP  RH WIND       PRES   REMARKS
GALLUP         CLEAR     56  17  21 NW7       30.39R
6HR MIN TEMP:  48; 6HR MAX TEMP:  62;

GRANTS         CLEAR     46  16  29 NW10G18   30.40R
SILVER CITY    CLEAR     57  18  21 SE8       30.34R

$$
NMZ407-409-411-412-270100-
SOUTHERN DESERTS

CITY           SKY/WX    TMP DP  RH WIND       PRES   REMARKS
LORDSBURG      FAIR      59  18  20 W5        30.28S
DEMING         CLEAR     62  17  17 SE3       30.29R
6HR MIN TEMP:  53; 6HR MAX TEMP:  66;

LAS CRUCES     CLEAR     61  17  18 W3        30.30S
HOLLOMAN AFB   CLEAR     60  21  22 N6        30.26S
ALAMOGORDO     CLEAR     59  19  21 MISG      30.26F
T OR C         CLEAR     59  22  24 E5        30.29S
6HR MIN TEMP:  52; 6HR MAX TEMP:  65;


$$
NMZ519>523-270100-
CENTRAL VALLEYS/CENTRAL HIGHLANDS

CITY           SKY/WX    TMP DP  RH WIND       PRES   REMARKS
ALBUQUERQUE    PTCLDY    58  23  26 N13G23    30.32R
6HR MIN TEMP:  49; 6HR MAX TEMP:  61;

DOUBLE EAGLE   CLEAR     52  21  30 N6        30.34S
MORIARTY ARPT  FAIR      47  21  35 N5        30.33S
6HR MIN TEMP:  47; 6HR MAX TEMP:  57;

CLINES CORNERS CLEAR     47  21  35 NW14      30.32R
6HR MIN TEMP:  47; 6HR MAX TEMP:  52;

BELEN          FAIR      53  22  28 SE3       30.33S
6HR MIN TEMP:  50; 6HR MAX TEMP:  59;

SOCORRO        FAIR      55  22  27 NW7       30.31S
6HR MIN TEMP:  48; 6HR MAX TEMP:  63;


$$
NMZ524>526-539-540-270100-
SOUTHCENTRAL MOUNTAINS

CITY           SKY/WX    TMP DP  RH WIND       PRES   REMARKS
RUIDOSO        CLEAR     48  21  34 NW14G20   30.37R

$$
NMZ527>531-270100-
NORTHEAST HIGHLANDS/NORTHEAST PLAINS

CITY           SKY/WX    TMP DP  RH WIND       PRES   REMARKS
LAS VEGAS      CLEAR     50  18  28 N7        30.29R
6HR MIN TEMP:  50; 6HR MAX TEMP:  61;

RATON          MOCLDY    45  19  35 N5        30.23R
6HR MIN TEMP:  45; 6HR MAX TEMP:  61;

CLAYTON        CLEAR     37  25  61 SE8       30.27R WCI  31
6HR MIN TEMP:  37; 6HR MAX TEMP:  48;


$$
NMZ532>537-270100-
EASTCENTRAL PLAINS

CITY           SKY/WX    TMP DP  RH WIND       PRES   REMARKS
TUCUMCARI      CLEAR     45  28  51 E9        30.25R
6HR MIN TEMP:  43; 6HR MAX TEMP:  54;

CANNON AFB     CLEAR     47  27  45 E8        30.28R
6HR MIN TEMP:  46; 6HR MAX TEMP:  56;

CLOVIS AIRPORT CLEAR     45  25  45 E8        30.28R

$$
NMZ028-029-538-270100-
SOUTHEAST PLAINS

CITY           SKY/WX    TMP DP  RH WIND       PRES   REMARKS
ROSWELL        CLEAR     57  25  29 S7        30.23R
6HR MIN TEMP:  57; 6HR MAX TEMP:  67;

CARLSBAD       CLEAR     62  23  22 E3        30.23R
6HR MIN TEMP:  59; 6HR MAX TEMP:  68;

HOBBS          CLEAR     54  28  37 E3        30.27S


$$


USA.gov is the U.S. government's official web portal to all federal, state and local government web resources and services.